| time (UTC) | temp C | wind direction | speed KPH | gust KPH | rain 1hr cm | rain 24hr cm | rain mn cm | humidity % | barometer mb |
| 20260502163049 | 11 | 269 | 1.6 | 4.8 | 0.00 | 0.00 | 0.00 | 47 | 1007.4 |
| 20260502161507 | 11 | 42 | 1.6 | 14.5 | 0.00 | 0.00 | 0.00 | 49 | 1007.7 |
| 20260502151504 | 10 | 304 | 3.2 | 9.7 | 0.00 | 0.00 | 0.00 | 53 | 1007.8 |
| 20260502123032 | 8 | 360 | 3.2 | 9.7 | 0.00 | 0.00 | 0.00 | 60 | 1007.7 |
| 20260502121554 | 8 | 264 | 3.2 | 12.9 | 0.00 | 0.00 | 0.00 | 60 | 1007.6 |
| 20260502114544 | 8 | 315 | 1.6 | 24.1 | 0.00 | 0.00 | 0.00 | 62 | 1007.2 |
| 20260502113008 | 8 | 11 | 3.2 | 17.7 | 0.00 | 0.00 | 0.00 | 60 | 1006.7 |
| 20260502111538 | 8 | 346 | 1.6 | 14.5 | 0.00 | 0.00 | 0.00 | 61 | 1006.7 |
| 20260502110003 | 8 | 312 | 6.4 | 19.3 | 0.00 | 0.00 | 0.00 | 57 | 1006.5 |
| 20260502104529 | 9 | 39 | 1.6 | 4.8 | 0.00 | 0.00 | 0.00 | 61 | 1006.8 |
| 20260502103106 | 9 | 3 | 0.0 | 4.8 | 0.00 | 0.00 | 0.00 | 59 | 1006.9 |
| 20260502101525 | 9 | 283 | 1.6 | 12.9 | 0.00 | 0.00 | 0.00 | 60 | 1006.9 |
| 20260502091505 | 10 | 357 | 3.2 | 16.1 | 0.00 | 0.00 | 0.00 | 63 | 1006.6 |
| 20260502070033 | 10 | 299 | 0.0 | 11.3 | 0.00 | 0.00 | 0.00 | 66 | 1006.0 |
| 20260502064555 | 11 | 21 | 3.2 | 20.9 | 0.00 | 0.00 | 0.00 | 65 | 1005.9 |
| 20260502063101 | 11 | 84 | 1.6 | 19.3 | 0.00 | 0.00 | 0.00 | 65 | 1006.1 |
| 20260502061522 | 11 | 342 | 3.2 | 16.1 | 0.00 | 0.00 | 0.00 | 65 | 1006.2 |
| 20260502060046 | 11 | 12 | 3.2 | 17.7 | 0.00 | 0.00 | 0.00 | 64 | 1006.6 |
| 20260502054526 | 11 | 304 | 4.8 | 12.9 | 0.00 | 0.00 | 0.00 | 64 | 1006.4 |
| 20260502053035 | 11 | 317 | 0.0 | 9.7 | 0.00 | 0.00 | 0.00 | 65 | 1006.4 |
| 20260502051502 | 12 | 285 | 0.0 | 14.5 | 0.00 | 0.00 | 0.00 | 66 | 1006.3 |
| 20260502050036 | 12 | 279 | 0.0 | 8.0 | 0.00 | 0.00 | 0.00 | 66 | 1006.3 |
| 20260502044557 | 12 | 347 | 3.2 | 9.7 | 0.00 | 0.00 | 0.00 | 65 | 1006.4 |
| 20260502043020 | 12 | 11 | 0.0 | 11.3 | 0.00 | 0.00 | 0.00 | 65 | 1006.3 |
| 20260502041555 | 12 | 36 | 1.6 | 17.7 | 0.00 | 0.00 | 0.00 | 67 | 1006.2 |
| 20260502040005 | 13 | 322 | 1.6 | 19.3 | 0.00 | 0.00 | 0.00 | 65 | 1006.2 |
| 20260502034532 | 13 | 283 | 0.0 | 9.7 | 0.00 | 0.00 | 0.00 | 66 | 1006.3 |
| 20260502033002 | 13 | 316 | 0.0 | 4.8 | 0.00 | 0.00 | 0.00 | 65 | 1006.0 |
| 20260502031533 | 13 | 302 | 0.0 | 8.0 | 0.00 | 0.00 | 0.00 | 66 | 1005.8 |
| 20260502030003 | 13 | 307 | 0.0 | 6.4 | 0.00 | 0.00 | 0.00 | 70 | 1005.8 |
| 20260502024535 | 13 | 166 | 0.0 | 8.0 | 0.00 | 0.00 | 0.00 | 70 | 1005.5 |
| 20260502023005 | 13 | 160 | 0.0 | 1.6 | 0.00 | 0.00 | 0.00 | 68 | 1005.4 |
| 20260502021538 | 13 | 117 | 0.0 | 6.4 | 0.00 | 0.00 | 0.00 | 66 | 1004.9 |
| 20260502020008 | 13 | 137 | 0.0 | 3.2 | 0.00 | 0.00 | 0.00 | 67 | 1004.5 |
| 20260502014539 | 14 | 137 | 0.0 | 3.2 | 0.00 | 0.00 | 0.00 | 65 | 1004.5 |
| 20260502013009 | 14 | 82 | 0.0 | 3.2 | 0.00 | 0.00 | 0.00 | 64 | 1004.5 |
| 20260502011540 | 14 | 155 | 0.0 | 6.4 | 0.00 | 0.00 | 0.00 | 62 | 1004.4 |
| 20260502010012 | 15 | 150 | 0.0 | 4.8 | 0.00 | 0.00 | 0.00 | 62 | 1004.4 |
| 20260502004540 | 15 | 116 | 0.0 | 3.2 | 0.00 | 0.00 | 0.00 | 60 | 1003.9 |
| 20260502003011 | 15 | 242 | 0.0 | 4.8 | 0.00 | 0.00 | 0.00 | 60 | 1003.8 |
| 20260502001548 | 15 | 200 | 0.0 | 9.7 | 0.00 | 0.00 | 0.00 | 58 | 1003.6 |
| 20260502000011 | 16 | 209 | 1.6 | 8.0 | 0.00 | 0.00 | 0.00 | 56 | 1003.1 |
| 20260501234544 | 16 | 352 | 0.0 | 8.0 | 0.00 | 0.00 | 0.00 | 55 | 1003.0 |
| 20260501233014 | 16 | 203 | 3.2 | 12.9 | 0.00 | 0.00 | 0.00 | 53 | 1003.0 |
| 20260501231545 | 17 | 174 | 4.8 | 20.9 | 0.00 | 0.00 | 0.00 | 50 | 1003.2 |
| 20260501230015 | 17 | 84 | 6.4 | 20.9 | 0.00 | 0.00 | 0.00 | 51 | 1003.0 |
| 20260501224604 | 17 | 146 | 3.2 | 19.3 | 0.00 | 0.00 | 0.00 | 49 | 1003.0 |
| 20260501223014 | 18 | 216 | 6.4 | 24.1 | 0.00 | 0.00 | 0.00 | 49 | 1003.1 |
| 20260501221544 | 18 | 210 | 4.8 | 17.7 | 0.00 | 0.00 | 0.00 | 48 | 1003.2 |
| 20260501220022 | 18 | 162 | 6.4 | 22.5 | 0.00 | 0.00 | 0.00 | 47 | 1003.3 |
| 20260501214538 | 18 | 221 | 3.2 | 17.7 | 0.00 | 0.00 | 0.00 | 46 | 1003.4 |
| 20260501213003 | 18 | 212 | 8.0 | 20.9 | 0.00 | 0.00 | 0.00 | 45 | 1003.5 |
| 20260501211534 | 18 | 179 | 6.4 | 16.1 | 0.00 | 0.00 | 0.00 | 44 | 1003.7 |
| 20260501210103 | 18 | 170 | 6.4 | 24.1 | 0.00 | 0.00 | 0.00 | 47 | 1003.8 |
| 20260501204529 | 18 | 275 | 3.2 | 20.9 | 0.00 | 0.00 | 0.00 | 45 | 1004.0 |
| 20260501203054 | 18 | 274 | 8.0 | 20.9 | 0.00 | 0.00 | 0.00 | 43 | 1004.2 |
| 20260501201524 | 18 | 254 | 9.7 | 20.9 | 0.00 | 0.00 | 0.00 | 45 | 1004.3 |
| 20260501200048 | 18 | 238 | 4.8 | 19.3 | 0.00 | 0.00 | 0.00 | 45 | 1004.7 |
| 20260501194507 | 18 | 228 | 8.0 | 16.1 | 0.00 | 0.00 | 0.00 | 45 | 1004.9 |
| 20260501193035 | 17 | 192 | 3.2 | 16.1 | 0.00 | 0.00 | 0.00 | 43 | 1005.4 |
| 20260501191556 | 17 | 239 | 6.4 | 19.3 | 0.00 | 0.00 | 0.00 | 44 | 1005.7 |
| 20260501190031 | 17 | 140 | 1.6 | 22.5 | 0.00 | 0.00 | 0.00 | 45 | 1005.8 |
| 20260501184546 | 17 | 262 | 3.2 | 19.3 | 0.00 | 0.00 | 0.00 | 43 | 1006.1 |
| 20260501183020 | 17 | 194 | 6.4 | 20.9 | 0.00 | 0.00 | 0.00 | 42 | 1006.4 |
| 20260501181533 | 17 | 227 | 6.4 | 16.1 | 0.00 | 0.00 | 0.00 | 48 | 1006.5 |
| 20260501180055 | 16 | 141 | 4.8 | 19.3 | 0.00 | 0.00 | 0.00 | 51 | 1006.9 |
| 20260501174522 | 16 | 250 | 6.4 | 22.5 | 0.00 | 0.00 | 0.00 | 49 | 1007.0 |
| 20260501173120 | 15 | 232 | 6.4 | 16.1 | 0.00 | 0.00 | 0.00 | 47 | 1007.3 |